Beale AFB, CA

2:39 PM PDT on September 25, 2017 (GMT -0700)
Beale Air Force Base

Weather History for KBAB - January, 2014

Change the Weather History Date:

Thursday, January 16, 2014

  Actual Average Record
Temperature  
Mean Temperature 48 °F -  
Max Temperature 66 °F 53 °F 66 °F (2014)
Min Temperature 29 °F 40 °F 21 °F (2012)
Degree Days  
Heating Degree Days 18    
Moisture  
Dew Point 32 °F    
Average Humidity 64    
Maximum Humidity 90    
Minimum Humidity 25    
Precipitation  
Precipitation 0.00 in - - ()
Sea Level Pressure  
Sea Level Pressure 30.39 in    
Wind  
Wind Speed 4 mph (East)    
Max Wind Speed 9 mph    
Max Gust Speed -    
Visibility 9 miles    
Events      
Averages and records for this station are not official NWS values.
T = Trace of Precipitation, MM = Missing Value Source: NWS Daily Summary

Daily Weather History Graph

Daily Weather History Graph

Search for Another Location

Airport or City:

Trip Planner

Search our weather history database for the weather conditions in past years. The results will help you decide how hot, cold, wet, or windy it might be!

Date:

Astronomy

Jan. 16, 2014 Rise Set
Actual Time 7:23 AM PST 5:08 PM PST
Civil Twilight 6:53 AM PST 5:37 PM PST
Nautical Twilight 6:20 AM PST 6:10 PM PST
Astronomical Twilight 5:48 AM PST 6:42 PM PST
Moon 6:04 PM PST (1/16) 7:20 AM PST (1/16)
Length of Visible Light 10h 44m
Length of Day
9h 45m
Full, 100% of the Moon is Illuminated
Jan 16
Full
Jan 23
Last Quarter
Jan 30
New
Feb 6
First Quarter
Feb 14
Full

Hourly Weather History & Observations

Time (PST) Temp. Windchill Dew Point Humidity Pressure Visibility Wind Dir Wind Speed Gust Speed Precip Events Conditions
12:58 AM 34.2 °F 31.2 °F 31.6 °F 90% 30.46 in 7.0 mi East 3.5 mph - N/A   Clear
1:58 AM 34.0 °F - 30.9 °F 89% 30.46 in 9.0 mi East 2.3 mph - N/A   Clear
2:58 AM 35.8 °F 31.9 °F 32.2 °F 87% 30.46 in 8.0 mi East 4.6 mph - N/A   Clear
3:58 AM 32.5 °F 28.1 °F 28.8 °F 86% 30.46 in 8.0 mi East 4.6 mph - N/A   Clear
4:58 AM 32.4 °F - 28.8 °F 87% 30.46 in 8.0 mi North 2.3 mph - N/A   Clear
5:58 AM 29.5 °F 25.9 °F 24.4 °F 81% 30.47 in 8.0 mi East 3.5 mph - N/A   Clear
6:43 AM 32.0 °F 27.5 °F 26.6 °F 80% 30.23 in 9.0 mi Variable 4.6 mph - N/A   Clear
6:58 AM 32.0 °F 28.7 °F 26.1 °F 79% 30.48 in 10.0 mi North 3.5 mph - N/A   Clear
7:58 AM 31.1 °F 26.4 °F 25.5 °F 80% 30.49 in 10.0 mi ENE 4.6 mph - N/A   Clear
8:58 AM 42.8 °F - 38.5 °F 85% 30.50 in 10.0 mi ESE 1.2 mph - N/A   Clear
9:58 AM 51.3 °F - 39.4 °F 64% 30.50 in 10.0 mi Calm Calm - N/A   Clear
10:58 AM 56.1 °F - 35.4 °F 46% 30.48 in 7.0 mi SSW 3.5 mph - N/A   Clear
11:58 AM 58.6 °F - 32.9 °F 38% 30.46 in 9.0 mi West 4.6 mph - N/A   Clear
12:58 PM 63.1 °F - 29.3 °F 28% 30.42 in 9.0 mi Variable 1.2 mph - N/A   Clear
1:58 PM 65.8 °F - 28.4 °F 25% 30.38 in 10.0 mi Variable 3.5 mph - N/A   Clear
2:58 PM 66.6 °F - 30.0 °F 26% 30.37 in 10.0 mi Variable 3.5 mph - N/A   Clear
3:58 PM 65.8 °F - 31.3 °F 28% 30.36 in 10.0 mi South 1.2 mph - N/A   Clear
4:58 PM 61.0 °F - 30.0 °F 31% 30.36 in 10.0 mi SSE 4.6 mph - N/A   Clear
5:58 PM 53.2 °F - 33.3 °F 47% 30.37 in 10.0 mi ESE 6.9 mph - N/A   Clear
6:58 PM 50.0 °F - 35.1 °F 57% 30.38 in 10.0 mi East 8.1 mph - N/A   Clear
7:58 PM 48.2 °F - 36.0 °F 63% 30.38 in 10.0 mi East 9.2 mph - N/A   Clear
8:58 PM 48.6 °F - 35.6 °F 61% 30.39 in 9.0 mi East 2.3 mph - N/A   Clear
9:13 PM 48.2 °F - 35.6 °F 62% 30.16 in 10.0 mi ENE 4.6 mph - N/A   Clear
9:58 PM 44.1 °F - 34.3 °F 69% 30.39 in 10.0 mi East 1.2 mph - N/A   Clear
10:28 PM 41.0 °F - 33.8 °F 76% 30.16 in 10.0 mi North 1.2 mph - N/A   Clear
10:43 PM 39.2 °F 37.0 °F 33.8 °F 81% 30.17 in 10.0 mi NNE 3.5 mph - N/A   Clear
10:58 PM 41.7 °F 39.8 °F 34.2 °F 75% 30.40 in 10.0 mi NE 3.5 mph - N/A   Clear
11:58 PM 42.4 °F 40.7 °F 34.2 °F 72% 30.40 in 10.0 mi NE 3.5 mph - N/A   Clear